Location: Cz?stochówka
(50.8142°N, 19.0915°E)
Time: 15:11:05
(UTC+00:00)

Cosmos 2366 rocket - Pass Details

Date: 16 April 2026
Orbit: 954 x 996 km, 82.9° (Epoch: 16 May)

Event Time Altitude Azimuth Distance (km) Brightness Sun altitude
Rises 19:59:35 0° 214° (SW) 3,637 6.9 -19.3°
Reaches altitude 10° 20:02:16 10° 222° (SW) 2,690 6.3 -19.6°
Maximum altitude 20:07:58 39° 290° (WNW) 1,414 5.3 -20.2°
Drops below altitude 10° 20:13:41 10° 358° (N) 2,696 7.0 -20.8°
Sets 20:16:23 0° 6° (N) 3,646 7.7 -21.0°
